Imperial, CA

1:55 AM PST on February 20, 2018 (GMT -0800)
Imperial County

Weather History for KIPL - June, 2014

Change the Weather History Date:

Wednesday, June 11, 2014

  Actual Average Record
Temperature  
Mean Temperature 91 °F -  
Max Temperature 108 °F 99 °F 110 °F (1956)
Min Temperature 75 °F 67 °F 58 °F (1954)
Cooling Degree Days 26    
Growing Degree Days 41 (Base 50)    
Moisture  
Dew Point 37 °F    
Average Humidity 17    
Maximum Humidity 30    
Minimum Humidity 5    
Precipitation  
Precipitation 0.00 in - - ()
Sea Level Pressure  
Sea Level Pressure 29.69 in    
Wind  
Wind Speed 12 mph (SW)    
Max Wind Speed 20 mph    
Max Gust Speed 25 mph    
Visibility 10 miles    
Events Rain    
Averages and records for this station are not official NWS values.
T = Trace of Precipitation, MM = Missing Value Source: NWS Daily Summary

Daily Weather History Graph

Daily Weather History Graph

Search for Another Location

Airport or City:

Trip Planner

Search our weather history database for the weather conditions in past years. The results will help you decide how hot, cold, wet, or windy it might be!

Date:

Astronomy

Jun. 11, 2014 Rise Set
Actual Time 5:33 AM PDT 7:50 PM PDT
Civil Twilight 5:05 AM PDT 8:19 PM PDT
Nautical Twilight 4:30 AM PDT 8:54 PM PDT
Astronomical Twilight 3:52 AM PDT 9:32 PM PDT
Moon 6:29 PM PDT (6/11) 4:20 AM PDT (6/11)
Length of Visible Light 15h 14m
Length of Day
14h 17m
Waxing Gibbous, 97% of the Moon is Illuminated
Jun 11
Waxing Gibbous
Jun 12
Full
Jun 19
Last Quarter
Jun 27
New
Jul 5
First Quarter

Hourly Weather History & Observations

Time (PDT) Temp. Dew Point Humidity Pressure Visibility Wind Dir Wind Speed Gust Speed Precip Events Conditions
12:53 AM 81.0 °F 37.9 °F 21% 29.67 in 10.0 mi West 16.1 mph - 0.00 in Rain Light Rain
1:53 AM 79.0 °F 42.1 °F 27% 29.67 in 10.0 mi WSW 10.4 mph - 0.00 in Rain Light Rain
2:53 AM 77.0 °F 42.1 °F 29% 29.67 in 10.0 mi West 12.7 mph - 0.00 in Rain Light Rain
3:53 AM 79.0 °F 39.9 °F 25% 29.67 in 10.0 mi West 12.7 mph - 0.00 in Rain Light Rain
4:53 AM 75.9 °F 39.9 °F 27% 29.67 in 10.0 mi WSW 6.9 mph - 0.00 in   Clear
5:53 AM 79.0 °F 37.0 °F 22% 29.69 in 10.0 mi WSW 11.5 mph - 0.00 in Rain Light Rain
6:53 AM 82.0 °F 36.0 °F 19% 29.72 in 10.0 mi SSE 6.9 mph - 0.00 in Rain Light Rain
7:53 AM 84.0 °F 48.0 °F 28% 29.73 in 10.0 mi SE 5.8 mph - 0.00 in Rain Light Rain
8:53 AM 86.0 °F 51.1 °F 30% 29.74 in 10.0 mi SE 8.1 mph - 0.00 in   Clear
9:53 AM 91.0 °F 46.0 °F 21% 29.74 in 10.0 mi ESE 6.9 mph - N/A   Clear
10:53 AM 96.1 °F 41.0 °F 15% 29.74 in 10.0 mi East 8.1 mph - N/A   Clear
11:53 AM 98.1 °F 39.9 °F 13% 29.73 in 10.0 mi ESE 5.8 mph - N/A   Clear
12:53 PM 102.0 °F 39.0 °F 11% 29.72 in - Variable 3.5 mph - N/A   Clear
1:53 PM 102.9 °F 34.0 °F 9% 29.70 in 10.0 mi East 8.1 mph - N/A   Clear
2:53 PM 105.1 °F 30.9 °F 8% 29.68 in 10.0 mi Variable 5.8 mph - N/A   Clear
3:53 PM 107.1 °F 23.0 °F 5% 29.65 in 10.0 mi SW 16.1 mph - N/A   Clear
4:53 PM 104.0 °F 32.0 °F 8% 29.64 in 10.0 mi WSW 17.3 mph 25.3 mph N/A   Clear
5:53 PM 100.9 °F 35.1 °F 10% 29.64 in 10.0 mi WSW 18.4 mph - N/A   Clear
6:53 PM 96.1 °F 34.0 °F 11% 29.65 in 10.0 mi West 15.0 mph - N/A   Clear
7:53 PM 91.9 °F 32.0 °F 12% 29.66 in 10.0 mi West 16.1 mph 23.0 mph N/A   Clear
8:53 PM 91.0 °F 28.0 °F 10% 29.68 in 10.0 mi West 19.6 mph - N/A   Clear
9:53 PM 88.0 °F 30.9 °F 13% 29.70 in 10.0 mi West 17.3 mph - N/A   Clear
10:53 PM 84.9 °F 32.0 °F 15% 29.72 in 10.0 mi WNW 10.4 mph - N/A   Clear
11:53 PM 86.0 °F 27.0 °F 12% 29.72 in 10.0 mi WSW 15.0 mph - N/A   Clear